Flag for U.S.A. Weather past 2 weeks in Laredo, Texas, U.S.A.

Now
59 °F

Clear.


Feels Like: 57 °F
Forecast: 63 / 84 °F
Wind: 9 mph from Northeast

Location: Laredo International Airport

Current Time: Mar 3, 2015 at 11:05:55 PM

Latest Report: Mar 3, 2015 at 9:56 PM


Visibility: 7 mi

Pressure: 29.81 "Hg

Humidity: 92%

Dew point: 57 °F

Location of LaredoLocation

Historic Weather in Laredo — Graph

°F

Laredo temperature yesterday

Maximum temperature yesterday: 49 °F (at 12:56 AM)
Minimum temperature yesterday: 46 °F (at 5:56 AM)
Average temperature yesterday: 47 °F

Past Weeks' High & Low Weather Summary

 TemperatureHumidityPressure
High88 °F (Feb 21, 3:56 PM)100% (Feb 28, 7:56 AM)30.46 "Hg (Feb 28, 7:56 AM)
Low36 °F (Feb 24, 2:56 AM)21% (Feb 18, 3:56 PM)29.75 "Hg (Feb 20, 5:56 PM)
Average53 °F74%30.12 "Hg
* Reported Feb 16 9:56 PM — Mar 3 9:56 PM, Laredo, Weather by CustomWeather, © 2015

Note: Actual official high and low records may vary slightly from our data, if they occured in-between our weather recording intervals... More about our weather records

Advertising

Laredo weather history for previous 24 hours

 ConditionsComfort  
Time TempWeatherWind HumidityBarometerVisibility
9:56 PM
Tue, Mar 3
59 °FClear.9 mph92%29.81 "Hg7 mi
8:56 PM64 °FPassing clouds.6 mph93%29.81 "Hg10 mi
7:56 PM65 °FOvercast.No wind90%29.79 "Hg10 mi
6:56 PM66 °FClear.No wind87%29.77 "Hg10 mi
5:56 PM69 °FSunny.15 mph76%29.75 "Hg10 mi
4:56 PM67 °FOvercast.12 mph78%29.78 "Hg10 mi
3:56 PM66 °FOvercast.10 mph76%29.79 "Hg10 mi
2:56 PM64 °FOvercast.9 mph75%29.83 "Hg10 mi
1:56 PM60 °FOvercast.7 mph84%29.88 "Hg10 mi
12:56 PM57 °FMostly cloudy.6 mph87%29.92 "Hg10 mi
11:56 AM54 °FLow clouds.No wind89%29.97 "Hg10 mi
10:56 AM52 °FLow clouds.No wind93%30.00 "Hg10 mi
9:56 AM50 °FLow clouds.No wind96%30.02 "Hg8 mi
8:56 AM49 °FFog.No wind100%30.02 "Hg5 mi
7:56 AM48 °FFog.3 mph100%30.01 "Hg2 mi
6:56 AM48 °FMostly cloudy.No wind97%30.02 "Hg7 mi
5:56 AM48 °FLight rain. Fog.No wind97%30.02 "Hg2 mi
4:56 AM48 °FLight rain. Fog.No wind97%30.03 "Hg5 mi
3:56 AM48 °FLight rain. Fog.3 mph97%30.03 "Hg4 mi
2:56 AM47 °FLight rain. Fog.No wind100%30.05 "Hg3 mi
1:56 AM47 °FLight rain. Fog.No wind100%30.07 "Hg4 mi
12:56 AM47 °FLight rain. Fog.6 mph100%30.08 "Hg3 mi
11:56 PM
Mon, Mar 2
47 °FLight rain. Fog.5 mph100%30.11 "Hg4 mi
Weather by CustomWeather, © 2015

See weather overviewHow to use our weather pages